STARLINK-1471 (45735 NORAD) Tracking and Keplerian Element Data

This shows tracking and keplerian element data for the satellite.

Feedback or suggestion? Click here.




ElementValue
Catalog45735
NameSTARLINK-1471
Epoch Orbit175
Epoch Day218.91667824
Epoch Year2020
RAAN42.4888
Inclination53.0009
Eccentricity0.0001651
Argument of Perigee95.6885
Mean Anonmoly88.1595
Mean Motion15.05589056
Decay Rate-0.00018361
L11 45735U 20038F 20218.91667824 -.00018361 00000-0 -12439-2 0 9995
L22 45735 53.0009 42.4888 0001651 95.6885 88.1595 15.05589056 1754

Live tracking and technical data element details for STARLINK-1471 (NORAD 45735). STARLINK-1471 can be tracked NOW for your location showing map with azimuth and elevation plus other details from your city location.

Track the satellite on the map from your city or location and see movement details for azimuth, elevation, latitude, longitude, range, height, and movement on the map or in text.







IsCatalogInMostPopularTable: catalog: 45735, numindb: 11
Update: records affected: 1



GetName: 45735 STARLINK-1471

Hit Count: updated at: Fri, 07 Aug 2020 23:55:18 GMT